Regional Weather Roundup
Issued by NWS State College, PA

Home | Current Version | Previous Version | Graphics & Text | Print | Product List | Glossary On
Versions: 1 2 3 4 5 6 7 8 9 10 11 12 13 14 15 16 17 18 19 20 21 22 23 24 25 26 27 28 29 30 31 32 33 34 35 36 37 38 39 40 41 42 43 44 45 46 47 48 49 50
000
ASUS41 KCTP 250310
RWRCTP

REGIONAL WEATHER ROUNDUP
NATIONAL WEATHER SERVICE STATE COLLEGE PA
1100 PM EDT TUE APR 24 2018

Note: "fair" indicates few or no clouds below 12,000 feet with no
significant weather and/or obstructions to visibility.

* = STATION THAT DOES NOT REPORT PRECIPITATION /E.G. RAIN...SNOW...ETC/
    THUNDER OR FOG.

PAZ002>004-007>009-013>016-020>023-029>032-250400-
WESTERN PENNSYLVANIA

CITY           SKY/WX    TMP DP  RH WIND       PRES   REMARKS
ERIE           LGT RAIN  53  48  83 E3        30.00F
MEADVILLE      LGT RAIN  49  49 100 VRB3      29.98F
FRANKLIN*      LGT RAIN  49  47  93 E12       29.99F
NEW CASTLE     LGT RAIN  51  51 100 E3        29.98F
BEAVER COUNTY  NOT AVBL
BUTLER*        LGT RAIN  50  49  96 E12       29.96F
PITTSBURGH INT LGT RAIN  51  50  96 E6        29.94F
PITTSBURGH     CLOUDY    50  49  96 E8        29.94F
INDIANA*       CLOUDY    50  50 100 E6        30.02F
LATROBE        CLOUDY    54  48  82 N5        29.96F
WASHINGTON CO* MOCLDY    51  49  92 NE5       29.96F
$$

PAZ004>006-010>012-017>019-024>028-033>037-041-042-045-046-049>053-250400-
CENTRAL PENNSYLVANIA

CITY           SKY/WX    TMP DP  RH WIND       PRES   REMARKS
BRADFORD       LGT RAIN  47  44  90 SE12G20   30.03F
DUBOIS         CLOUDY    48  47  96 SE12      30.01F
CLEARFIELD     LGT RAIN  48  47  96 E10       30.04F
JOHNSTOWN      LGT RAIN  48  45  89 E9        29.98F
ALTOONA        LGT RAIN  52  47  83 E9        30.03F
STATE COLLEGE  DRIZZLE   50  47  92 E3        30.06F
WILLIAMSPORT   LGT RAIN  52  49  89 E7        30.09F
SELINSGROVE    LGT RAIN  52  48  86 E5        30.10F
FT INDIANTOWN  NOT AVBL
CAPITAL CITY   RAIN      54  53  97 E6        30.08F FOG
HARRISBURG     LGT RAIN  53  50  89 E9        30.08F FOG
YORK           LGT RAIN  52  51  97 E7        30.06F FOG
$$

PAZ038>040-043-044-047-048-054-055-060>062-067>071-250400-
EASTERN PENNSYLVANIA

CITY           SKY/WX    TMP DP  RH WIND       PRES   REMARKS
SCRANTON       LGT RAIN  51  47  86 E6        30.12F
MOUNT POCONO   LGT RAIN  46  45  96 E8        30.12F
ALLENTOWN      LGT RAIN  54  47  77 E9        30.12F
QUAKERTOWN*    CLOUDY    52  50  93 E7        30.12F FOG
READING        LGT RAIN  53  51  93 E8        30.10F
LANCASTER      LGT RAIN  52  50  93 E7        30.08F
COATESVILLE    LGT RAIN  52  50  93 E12       30.10F
POTTSTOWN      LGT RAIN  51  50  96 E5        30.13F FOG
BLUE BELL      CLOUDY    52  52 100 E6        30.12F
DOYLESTOWN     LGT RAIN  52  50  93 VRB3      30.12F
WILLOW GROVE   NOT AVBL
NORTH PHILA    LGT RAIN  56  52  86 E10       30.13F FOG
PHILADELPHIA   LGT RAIN  53  51  93 E8        30.11F FOG
$$




USA.gov is the U.S. government's official web portal to all federal, state and local government web resources and services.